Terminal Aerodrome Forecast
Issued by NWS

Home | Current Version | Previous Version | Text Only | Print | Product List | Glossary Off
Versions: 1 2 3 4 5 6 7 8 9 10 11 12 13 14

000
FTUS45 KGGW 292320
TAFGDV
TAF
KGDV 292320Z 3000/3024 26011KT P6SM SCT080
     FM300400 04005KT P6SM SCT200
     FM301400 34009KT P6SM -SHRA BKN050
      AMD LTD TO CLD VIS AND WIND=

USA.gov is the U.S. government's official web portal to all federal, state and local government web resources and services.